Terminal Aerodrome Forecast
Issued by NWS Louisville, KY

Home | Current Version | Previous Version | Text Only | Print | Product List | Glossary On
Versions: 1 2 3 4 5 6 7 8 9 10 11 12 13 14 15 16 17 18 19 20 21 22
000
FTUS43 KLMK 011100
TAFBWG
TAF
KBWG 011127Z 0112/0212 20005KT P6SM FEW012 BKN100
      TEMPO 0112/0114 BKN012
     FM011500 22014G18KT P6SM BKN250
     FM020000 20007KT P6SM SCT250=

USA.gov is the U.S. government's official web portal to all federal, state and local government web resources and services.